Weather History for Jackson, WY

Change the Weather History Date:

Thursday, August 1, 2013

  Actual Average Record
Temperature  
Mean Temperature 67 °F -  
Max Temperature 84 °F 81 °F 91 °F (1988)
Min Temperature 50 °F 41 °F 32 °F (1975)
Cooling Degree Days 2    
Growing Degree Days 17 (Base 50)    
Moisture  
Dew Point 43 °F    
Average Humidity 52    
Maximum Humidity 87    
Minimum Humidity 15    
Precipitation  
Precipitation 0.00 in - - ()
Sea Level Pressure  
Sea Level Pressure 30.14 in    
Wind  
Wind Speed 8 mph (ESE)    
Max Wind Speed 18 mph    
Max Gust Speed 26 mph    
Visibility 10 miles    
Events Thunderstorm    
Averages and records for this station are not official NWS values.
T = Trace of Precipitation, MM = Missing Value Source: NWS Daily Summary

Daily Weather History Graph

Daily Weather History Graph

Search for Another Location

Airport:

Trip Planner

Search our weather history database for the weather conditions in past years. The results will help you decide how hot, cold, wet, or windy it might be!

Date:

Astronomy

Aug. 01, 2013 Rise Set
Actual Time 6:12 AM MDT 8:45 PM MDT
Civil Twilight 5:39 AM MDT 9:17 PM MDT
Nautical Twilight 4:59 AM MDT 9:58 PM MDT
Astronomical Twilight 4:12 AM MDT 10:44 PM MDT
Moon 1:50 AM MDT (8/1) 4:58 PM MDT (8/1)
Length of Visible Light 15h 37m
Length of Day
14h 32m
Waning Crescent, 23% of the Moon is Illuminated
Aug 1
Waning Crescent
Aug 6
New
Aug 14
First Quarter
Aug 20
Full
Aug 28
Last Quarter

Hourly Weather History & Observations

Time (MDT) Temp. Dew Point Humidity Pressure Visibility Wind Dir Wind Speed Gust Speed Precip Events Conditions
12:15 AM 57.2 °F 48.2 °F 72% 30.26 in 10.0 mi East 13.8 mph 21.9 mph N/A   Clear
12:35 AM 60.8 °F 46.4 °F 59% 30.27 in 10.0 mi NNE 5.8 mph - N/A   Clear
12:55 AM 55.4 °F 48.2 °F 77% 30.28 in 10.0 mi WNW 6.9 mph - N/A   Clear
1:15 AM 55.4 °F 48.2 °F 77% 30.28 in 10.0 mi Calm Calm - N/A   Partly Cloudy
1:35 AM 59.0 °F 46.4 °F 63% 30.27 in 10.0 mi North 11.5 mph - N/A   Clear
1:55 AM 57.2 °F 48.2 °F 72% 30.28 in 10.0 mi North 9.2 mph - N/A   Partly Cloudy
2:15 AM 59.0 °F 46.4 °F 63% 30.26 in 10.0 mi NNE 13.8 mph - N/A   Partly Cloudy
2:35 AM 57.2 °F 48.2 °F 72% 30.27 in 10.0 mi North 8.1 mph - N/A   Clear
2:55 AM 57.2 °F 48.2 °F 72% 30.25 in 10.0 mi North 11.5 mph - N/A   Clear
3:15 AM 55.4 °F 46.4 °F 72% 30.24 in 10.0 mi North 13.8 mph - N/A   Scattered Clouds
3:55 AM 57.2 °F 46.4 °F 67% 30.24 in 10.0 mi NNE 10.4 mph - N/A   Partly Cloudy
4:15 AM 57.2 °F 46.4 °F 67% 30.23 in 10.0 mi NNE 8.1 mph - N/A   Scattered Clouds
4:35 AM 57.2 °F 46.4 °F 67% 30.22 in 10.0 mi North 9.2 mph - N/A   Partly Cloudy
4:55 AM 57.2 °F 46.4 °F 67% 30.22 in 10.0 mi ENE 11.5 mph - N/A   Clear
5:15 AM 55.4 °F 44.6 °F 67% 30.22 in 10.0 mi North 5.8 mph - N/A   Clear
5:35 AM 55.4 °F 46.4 °F 72% 30.22 in 10.0 mi WSW 6.9 mph - N/A   Clear
5:55 AM 51.8 °F 46.4 °F 82% 30.22 in 10.0 mi WSW 5.8 mph - N/A   Clear
6:16 AM 50.0 °F 46.4 °F 87% 30.22 in 10.0 mi WSW 4.6 mph - N/A   Partly Cloudy
6:35 AM 51.8 °F 46.4 °F 82% 30.22 in 10.0 mi Calm Calm - N/A   Mostly Cloudy
6:51 AM 51.8 °F 46.4 °F 82% 30.22 in 10.0 mi Calm Calm - N/A   Clear
7:53 AM 55.4 °F 46.4 °F 72% 30.02 in 10.0 mi Calm Calm - N/A   Clear
8:51 AM 59.0 °F 46.4 °F 63% 30.20 in 10.0 mi Calm Calm - N/A   Clear
9:54 AM 64.4 °F 46.4 °F 52% 30.18 in 10.0 mi Calm Calm - N/A   Clear
10:51 AM 69.8 °F 46.4 °F 43% 30.16 in 10.0 mi Calm Calm - N/A   Clear
11:51 AM 75.2 °F 46.4 °F 36% 30.13 in 10.0 mi SSE 6.9 mph - N/A   Clear
12:51 PM 80.6 °F 39.2 °F 23% 30.11 in 10.0 mi South 12.7 mph - N/A   Clear
1:51 PM 84.2 °F 37.4 °F 19% 30.08 in 10.0 mi South 12.7 mph 21.9 mph N/A   Clear
2:51 PM 84.2 °F 33.8 °F 16% 30.06 in 10.0 mi South 18.4 mph 24.2 mph N/A   Clear
3:51 PM 84.2 °F 35.6 °F 18% 30.03 in 10.0 mi WSW 13.8 mph 26.5 mph N/A   Scattered Clouds
4:55 PM 84.2 °F 35.6 °F 18% 30.01 in 10.0 mi SSW 16.1 mph 24.2 mph N/A   Scattered Clouds
5:52 PM 84.2 °F 32.0 °F 15% 29.99 in 10.0 mi SSW 10.4 mph - N/A   Scattered Clouds
6:51 PM 82.4 °F 30.2 °F 15% 29.98 in 10.0 mi SSW 13.8 mph - N/A   Scattered Clouds
7:52 PM 75.2 °F 33.8 °F 22% 29.97 in 10.0 mi South 6.9 mph - N/A   Scattered Clouds
8:53 PM 73.4 °F 35.6 °F 25% 29.97 in 10.0 mi South 10.4 mph - N/A   Mostly Cloudy
9:15 PM 73.4 °F 37.4 °F 27% 29.97 in 10.0 mi SW 5.8 mph - N/A   Mostly Cloudy
9:35 PM 68.0 °F 39.2 °F 35% 29.98 in 10.0 mi West 6.9 mph - N/A   Mostly Cloudy
9:55 PM 71.6 °F 37.4 °F 29% 29.98 in 10.0 mi ESE 6.9 mph - N/A Thunderstorm Partly Cloudy
10:15 PM 68.0 °F 39.2 °F 35% 29.98 in 10.0 mi ENE 6.9 mph - N/A   Clear
10:55 PM 62.6 °F 42.8 °F 48% 29.99 in 10.0 mi SE 3.5 mph - N/A   Clear
11:15 PM 64.4 °F 39.2 °F 40% 29.99 in 10.0 mi ESE 6.9 mph - N/A   Clear
11:55 PM 66.2 °F 37.4 °F 35% 30.00 in 10.0 mi ESE 8.1 mph - N/A   Clear